Tracking 18980 objects as of 19-Feb-2018
HD Live streaming from Space Station
objects crossing your sky now

COSMOS 2189

Track COSMOS 2189 now!
10-day predictions
COSMOS 2189 is classified as:


NORAD ID: 21978
Int'l Code: 1992-030C
Perigee: 1,423.1 km
Apogee: 1,487.0 km
Inclination: 74.0 °
Period: 114.8 minutes
Semi major axis: 7826 km
RCS: 0.6942 m2 (medium)
Launch date: June 3, 1992
Source: Commonwealth of Independent States (former USSR) (CIS)
Launch site: PLESETSK MISSILE AND SPACE COMPLEX (PKMTR)
aabbcc
Your satellite tracking list
Your tracking list is empty




NASA's NSSDC Master Catalog

Two Line Element Set (TLE):
1 21978U 92030C   18049.61978956 -.00000011 +00000-0 +35026-4 0  9997
2 21978 074.0014 280.2803 0040857 315.4115 108.3981 12.53979154176989
Source of the keplerian elements: AFSPC